Location: Piotrkow Trybunalski
(51.4000°N, 19.6830°E)
Time: 15:05:17
(UTC+01:00)

Explorer 7 - Visible Passes

Search period start: 27 January 2023 00:00
Search period end: 06 February 2023 00:00
Orbit: 480 x 661 km, 50.3° (Epoch: 26 January)

Date Brightness Start Highest point End Pass type
(mag) Time Alt. Az. Time Alt. Az. Time Alt. Az.
27 Jan 7.2 17:15:19 10° W 17:19:56 79° S 17:24:39 10° E visible
27 Jan 7.7 18:55:35 10° W 19:00:08 49° SSW 19:00:44 46° S visible
27 Jan 10.2 20:36:36 10° W 20:36:49 11° W 20:36:49 11° W visible
28 Jan 7.3 17:16:20 10° W 17:20:56 76° S 17:25:43 10° ESE visible
28 Jan 8.1 18:56:39 10° W 19:01:03 40° SSW 19:02:01 36° S visible
29 Jan 7.4 17:17:21 10° W 17:21:56 69° SSW 17:26:41 10° ESE visible
29 Jan 8.6 18:57:45 10° W 19:01:55 32° SSW 19:03:24 26° S visible
30 Jan 7.6 17:18:20 10° W 17:22:52 61° SSW 17:27:35 10° ESE visible
30 Jan 9.0 18:58:54 10° W 19:02:44 25° SW 19:04:53 18° S visible
31 Jan 7.9 17:19:20 10° W 17:23:48 51° SSW 17:28:25 10° SE visible
31 Jan 9.5 19:00:12 10° W 19:03:30 19° SW 19:06:34 11° S visible
01 Feb 8.3 17:20:20 10° W 17:24:40 42° SSW 17:29:09 10° SE visible
01 Feb 9.8 19:01:47 10° WSW 19:04:12 14° SW 19:06:38 10° SSW visible
02 Feb 8.8 17:21:21 10° W 17:25:29 34° SSW 17:29:45 10° SSE visible
03 Feb 9.3 17:22:27 10° W 17:26:16 26° SW 17:30:12 10° SSE visible
04 Feb 9.8 17:23:38 10° W 17:26:59 20° SW 17:30:25 10° S visible
05 Feb 10.0 17:25:04 10° WSW 17:27:39 15° SW 17:30:17 10° S visible
